User: anonymous   Login
Location: Lake Runnemede Observatory
(43.4843°N, 72.3851°W)
Time: 19:16:57
(UTC-05:00)
Language:

SPOT 5 - Orbit

View from above orbital plane
View from above orbital plane
View from above satellite
View from above satellite

Ground track
Ground track

The orbit data is extracted from the following two-line orbital elements,

1 27421U 02021A   17055.46422561  .00000000  00000-0  12091-4 0  9996
2 27421  98.4204 118.5599 0134654 314.0303  44.9862 14.51842044769312
Epoch (UTC): 24 February 2017 11:08:29
Eccentricity: 0.0134654
inclination: 98.4204°
perigee height: 624 km
apogee height: 815 km
right ascension of ascending node: 118.5599°
argument of perigee: 314.0303°
revolutions per day: 14.51842044
mean anomaly at epoch: 44.9862°
orbit number at epoch: 76931

The dashed part of the orbit path shows where the satellite is in the earth's shadow,  

DLR